PulseSat

PulseSat

GORIZONT 18 [-]

Last updated on July 18, 2018, 12:20 a.m. UTC

1 20107U 89052A   18198.60813373  .00000010  00000-0  00000+0 0  9992
2 20107  15.0204 358.0145 0039005 279.2091  83.4265  0.99401489105667
UTC
Height (km)
Latitude
Longitude
Inclination
Orbital Period

Next 30 passes for location: Hong Kong

Rise time Rise Azimuth (degrees) Set time Set Azimuth (degrees) Duration Max altitude (degrees)
2018/7/19 17:15:26 UTC
83.22°
83.22° 2018/7/19 23:50:53 UTC
82.03°
82.03° 395.0 min 26.0 sec 1.75°
2018/7/21 14:26:11 UTC
95.56°
95.56° 2018/7/21 03:27:35 UTC
95.47°
95.47° -659.0 min 23.0 sec 4.48°
2018/7/22 13:03:11 UTC
101.70°
101.70° 2018/7/22 06:21:27 UTC
105.72°
105.72° -402.0 min 16.0 sec 7.33°

PulseSat

PulseSat is the new satellites software and hardware trackering solution by Pulsely.
Satellite Two Line Element Set source: US Air Force Space Command

Download PulseSat for iOS
© 2017 Pulsely Limited